FENGYUN 1C DEB, 30846

Orbit data source: Space-Track

FENGYUN 1C DEB, 30846 is space debris in SSO originally from a launch on Mon, 10 May 1999 UTC launched from the Taiyaun Space Center, China (TSC). Fengyun 1C debris stems from the Chinese weather satellite Fengyun-1C, which was intentionally destroyed by a Chinese anti-satellite missile in 2007. This event dramatically increased the amount of space debris, with thousands of trackable fragments posing hazards to satellites and human spaceflight. The Fengyun 1C debris cloud has become a focal point in discussions about space sustainability and the need for international regulations to prevent the creation of new debris.

Loading next visibility...
Identifier
30846, 1999-025AWG
Orbit
SSO
Country
Flag of CNCN / PRC
Related business
Manufacturer
Unknown
Mission
Spacecraft
Bus & Motor
Unknown
Mass
Unknown
Launch date (UTC)
1999-05-10 (27 years ago)
Launch vehicle
Unknown
Launch site
Taiyaun Space Center, China (TSC)
Object type
Payload
Rocket body
Debris
Shape & HBR
Unknown shape, 0.1 m
Radar Cross Section
Small (<0.1 m²)

Expand to show TLE details & history
Last TLE update: 10 hours ago

TLE from 10 hours ago
0 FENGYUN 1C DEB
1 30846U 99025AWG 26166.52265582  .00001883  00000-0  57354-3 0  9999
2 30846  99.3252   1.7401 0053588 153.2162 263.5953 14.42538487  5841
Epoch: 2026-06-15T12:32Z
TLE epoch observation values (Epoch: 2026-06-15T12:32:37.462Z)
Latitude
55.18856°
Longitude
-103.80979°
Altitude
763.69 km
Speed
7.475 km/s
True Right ascension
23h 12m 36s
True Declination
55° 01' 38"
Sunlit
Object was in daylight at epoch
Visualization orbit readout
Latitude
Unknown
Longitude
Unknown
Altitude
Unknown
Speed
Unknown
Apparent Right ascension
Unknown
Apparent Declination
Unknown
Sunlit
N/A
Visualization observer readout
Local Sidereal Time
09:13:38
Azimuth
Unknown
Elevation
Unknown
Doppler factor
Unknown
Orbital elements
Apogee altitude
785.467 km
Perigee altitude
709.099 km
Semi-major axis
7,125.42 km
Eccentricity
0.00536
Inclination
99.3252°
RAAN
1.7401°
Arg. of periapsis
153.2162°
True anomaly
262.98553°
Mean anomaly
263.5953°
Eccentric anomaly
263.29037°
Mean motion
3.60851 °/min
Orbital period
99.76 mins
BSTAR
0.00057354
Loading maneuver chart data...
Computing Atmospheric mass density...

Documentation

Showing up to 5 results
|